Location: Unspecified
(0.0000°N, 0.0000°E)
Time: 02:33:59
(UTC+00:00)

deb Kosmos-2227 - Visible Passes

Search period start: 25 February 2021 00:00
Search period end: 07 March 2021 00:00
Orbit: 544 x 558 km, 70.5° (Epoch: 23 February)

Date Brightness Start Highest point End Pass type
(mag) Time Alt. Az. Time Alt. Az. Time Alt. Az.
25 Feb ? 05:24:03 10° SE 05:26:22 15° ESE 05:28:38 10° ENE visible
25 Feb ? 18:59:05 10° WNW 19:01:38 16° WSW 19:04:10 10° SW visible
26 Feb ? 05:19:03 10° SSE 05:22:03 20° ESE 05:25:02 10° ENE visible
26 Feb ? 18:55:51 10° W 18:57:18 12° WSW 18:58:46 10° SW visible
27 Feb ? 05:14:15 10° SSE 05:17:43 27° ESE 05:21:09 10° NE visible
28 Feb ? 05:09:34 10° S 05:13:21 37° ESE 05:17:05 10° NE visible
01 Mar ? 05:04:58 10° S 05:08:57 52° ESE 05:12:53 10° NNE visible
02 Mar ? 05:00:27 10° S 05:04:30 74° ESE 05:08:32 10° NNE visible
03 Mar ? 04:55:59 10° SSW 05:00:03 79° WNW 05:04:05 10° NNE visible
04 Mar ? 04:54:15 37° SW 04:55:33 55° WNW 04:59:30 10° N visible
05 Mar ? 04:53:18 20° NNW 04:53:18 20° NNW 04:54:48 10° N visible
